Weather History for Grand Prairie, TX

Change the Weather History Date:

Thursday, March 28, 2013

  Actual Average (KDFW) Record (KDFW)
Temperature  
Mean Temperature 60 °F 61 °F  
Max Temperature 69 °F 72 °F 90 °F (1928)
Min Temperature 51 °F 50 °F 25 °F (1899)
Degree Days  
Heating Degree Days 5 6  
Month to date heating degree days 245  
Since 1 July heating degree days 2177  
Cooling Degree Days 0 2  
Month to date cooling degree days 29  
Year to date cooling degree days 36  
Growing Degree Days 10 (Base 50)    
Moisture  
Dew Point 48 °F    
Average Humidity 69    
Maximum Humidity 82    
Minimum Humidity 59    
Precipitation  
Precipitation 0.00 in 0.10 in 2.64 in (1989)
Month to date precipitation 3.17  
Year to date precipitation 7.96  
Snow  
Snow 0.00 in 0.00 in 0.00 in ()
Month to date snowfall 0.2  
Since 1 July snowfall 1.2  
Snow Depth -    
Sea Level Pressure  
Sea Level Pressure 30.18 in    
Wind  
Wind Speed 8 mph (SSE)    
Max Wind Speed 14 mph    
Max Gust Speed 23 mph    
Visibility 10 miles    
Events      
T = Trace of Precipitation, MM = Missing Value Source: NWS Daily Summary

Daily Weather History Graph

Daily Weather History Graph

Search for Another Location

Airport:

Trip Planner

Search our weather history database for the weather conditions in past years. The results will help you decide how hot, cold, wet, or windy it might be!

Date:

Astronomy

Mar. 28, 2013 Rise Set
Actual Time 7:21 AM CDT 7:45 PM CDT
Civil Twilight 6:56 AM CDT 8:10 PM CDT
Nautical Twilight 6:27 AM CDT 8:39 PM CDT
Astronomical Twilight 5:58 AM CDT 9:08 PM CDT
Moon 9:30 PM CDT (3/28) 7:56 AM CDT (3/28)
Length of Visible Light 13h 13m
Length of Day
12h 24m
Full, 98% of the Moon is Illuminated
Mar 28
Full
Apr 2
Last Quarter
Apr 10
New
Apr 18
First Quarter
Apr 25
Full

Hourly Weather History & Observations

Time (CDT) Temp. Dew Point Humidity Pressure Visibility Wind Dir Wind Speed Gust Speed Precip Events Conditions
12:15 AM 57.2 °F 42.8 °F 59% 30.18 in 10.0 mi South 5.8 mph - N/A   Clear
12:35 AM 57.2 °F 42.8 °F 59% 30.18 in 10.0 mi South 6.9 mph - N/A   Clear
12:55 AM 57.2 °F 42.8 °F 59% 30.18 in 10.0 mi South 8.1 mph - N/A   Clear
1:15 AM 55.4 °F 42.8 °F 63% 30.19 in 10.0 mi South 6.9 mph - N/A   Clear
1:35 AM 55.4 °F 42.8 °F 63% 30.18 in 10.0 mi South 8.1 mph - N/A   Clear
1:55 AM 55.4 °F 42.8 °F 63% 30.18 in 10.0 mi South 8.1 mph - N/A   Clear
2:15 AM 55.4 °F 42.8 °F 63% 30.18 in 10.0 mi South 11.5 mph - N/A   Clear
2:35 AM 55.4 °F 42.8 °F 63% 30.18 in 10.0 mi South 6.9 mph - N/A   Clear
2:55 AM 55.4 °F 44.6 °F 67% 30.18 in 10.0 mi South 9.2 mph 16.1 mph N/A   Clear
3:15 AM 55.4 °F 44.6 °F 67% 30.18 in 10.0 mi South 10.4 mph 16.1 mph N/A   Clear
3:35 AM 53.6 °F 44.6 °F 72% 30.18 in 10.0 mi South 10.4 mph - N/A   Clear
3:55 AM 53.6 °F 44.6 °F 72% 30.17 in 10.0 mi South 9.2 mph - N/A   Clear
4:15 AM 53.6 °F 44.6 °F 72% 30.17 in 10.0 mi South 8.1 mph - N/A   Clear
4:35 AM 53.6 °F 46.4 °F 77% 30.18 in 10.0 mi SSE 8.1 mph - N/A   Clear
4:55 AM 51.8 °F 46.4 °F 82% 30.18 in 10.0 mi SSE 8.1 mph - N/A   Clear
5:15 AM 51.8 °F 44.6 °F 76% 30.18 in 10.0 mi SSE 8.1 mph - N/A   Clear
5:35 AM 51.8 °F 44.6 °F 76% 30.18 in 10.0 mi South 8.1 mph - N/A   Clear
5:55 AM 51.8 °F 44.6 °F 76% 30.19 in 10.0 mi SSE 6.9 mph - N/A   Clear
6:15 AM 51.8 °F 44.6 °F 76% 30.19 in 10.0 mi South 9.2 mph - N/A   Clear
6:35 AM 51.8 °F 44.6 °F 76% 30.19 in 10.0 mi South 9.2 mph - N/A   Clear
6:50 AM 51.8 °F 46.4 °F 82% 30.19 in 10.0 mi SSE 9.2 mph - N/A   Clear
6:55 AM 51.8 °F 44.6 °F 76% 30.20 in 10.0 mi South 6.9 mph - N/A   Clear
8:50 AM 55.4 °F 48.2 °F 77% 30.24 in 10.0 mi SSE 11.5 mph - N/A   Clear
9:50 AM 57.2 °F 48.2 °F 72% 30.25 in 10.0 mi SSE 11.5 mph - N/A   Scattered Clouds
10:50 AM 62.6 °F 51.8 °F 68% 30.25 in 10.0 mi South 11.5 mph 23.0 mph N/A   Mostly Cloudy
11:50 AM 64.4 °F 53.6 °F 68% 30.25 in 10.0 mi South 13.8 mph 23.0 mph N/A   Mostly Cloudy
12:50 PM 64.4 °F 53.6 °F 68% 30.25 in 10.0 mi South 13.8 mph 23.0 mph N/A   Mostly Cloudy
5:50 PM 69.8 °F 55.4 °F 60% 30.11 in 10.0 mi SE 11.5 mph 16.1 mph N/A   Mostly Cloudy
7:50 PM 69.8 °F 55.4 °F 60% 30.11 in 10.0 mi SE 8.1 mph - N/A   Mostly Cloudy
9:15 PM 66.2 °F 53.6 °F 64% 30.12 in 10.0 mi SSE 6.9 mph - N/A   Mostly Cloudy
9:35 PM 66.2 °F 53.6 °F 64% 30.14 in 10.0 mi SSE 6.9 mph - N/A   Mostly Cloudy
9:55 PM 66.2 °F 53.6 °F 64% 30.14 in 10.0 mi SSE 8.1 mph - N/A   Overcast
10:15 PM 66.2 °F 53.6 °F 64% 30.14 in 10.0 mi SSE 8.1 mph - N/A   Mostly Cloudy
10:35 PM 64.4 °F 53.6 °F 68% 30.15 in 10.0 mi SSE 8.1 mph - N/A   Mostly Cloudy
10:55 PM 64.4 °F 55.4 °F 73% 30.15 in 10.0 mi SSE 9.2 mph - N/A   Mostly Cloudy
11:15 PM 64.4 °F 53.6 °F 68% 30.16 in 10.0 mi South 9.2 mph - N/A   Mostly Cloudy
11:55 PM 64.4 °F 55.4 °F 73% 30.16 in 10.0 mi South 8.1 mph - N/A   Mostly Cloudy